Cloud_Cover
100 100 100 100 91 89 97 69 100 100 100 100 100 100 100 100 100 100 100 100 100 92 3 15 24 5 5 4 5 7 10 59 100
100 100 100 88 68 5 98 100 88 100 100 100 100 100 100 100 100 100 100 100 100 100 100 100 100 100 17 5 1 5 5 29 46
97 100 86 82 6 4 0 8 98 97 100 99 96 100 100 100 100 94 88 100 100 100 100 100 100 100 100 100 47 5 5 14 26
100 87 56 50 13 5 4 4 4 68 100 100 96 94 72 57 54 55 36 15 36 85 23 100 100 100 100 100 100 99 72 34 57
86 5 6 6 4 3 0 2 5 0 3 29 99 100 100 100 100 100 92 83 99 3 1 0 0 5 50 78 60 94 100 100 88
48 5 5 40 23 3 5 4 28 5 5 0 3 64 89 100 100 100 100 44 0 0 4 5 2 0 0 86 86 50 100 100 96
27 99 13 3 0 3 3 4 26 6 5 1 0 0 0 0 0 0 2 0 0 0 3 8 3 2 9 7 11 95 80 92 100
10 7 8 3 19 5 2 2 7 20 27 24 5 1 0 11 0 0 0 0 0 0 0 3 0 1 0 6 16 31 100 90 32
6 5 5 4 2 5 5 3 0 0 5 5 8 5 2 2 0 0 0 0 0 0 0 0 25 1 0 0 4 27 13 92 22
10 6 5 3 4 11 4 4 5 1 0 0 0 0 0 0 0 2 2 9 10 3 2 1 0 13 7 0 1 0 0 5 4
49 40 5 1 5 3 0 0 0 0 0 0 0 0 0 0 0 0 0 7 17 12 28 24 9 0 0 0 8 0 0 0 13
100 93 68 2 0 4 5 2 0 0 0 0 0 0 0 0 1 61 82 77 41 14 87 57 29 1 6 36 1 15 29 4 2
78 100 92 87 11 5 5 5 0 0 0 0 2 13 7 8 100 100 100 100 29 0 24 65 69 65 29 3 2 0 50 30 24
100 44 100 62 5 17 38 17 0 0 0 7 18 8 20 84 100 100 100 100 6 3 25 54 97 100 90 40 34 93 5 1 56
6 8 100 77 2 0 0 0 0 0 54 100 100 100 100 75 100 100 100 98 39 46 94 100 100 100 100 32 100 100 18 67 100
42 97 95 0 0 0 0 0 0 0 84 100 100 100 100 74 100 100 100 100 94 95 99 100 100 100 100 100 100 100 100 55 100
0 3 1 5 5 0 4 0 0 2 58 100 100 100 100 100 100 100 100 100 100 100 100 100 100 100 100 100 100 100 100 97 41
5 4 4 2 0 4 2 0 0 0 0 100 100 100 100 99 100 100 93 74 67 100 100 100 100 100 100 100 100 100 100 100 100
1 0 2 4 4 0 0 0 0 0 0 22 100 100 99 72 98 98 100 18 88 100 100 100 100 100 100 100 100 100 100 100 100
5 5 0 0 0 0 0 0 0 0 0 0 2 4 15 97 64 1 1 63 100 100 98 96 74 100 100 100 100 100 97 100 100